TimeHST,TemperatureF,Dew PointF,Humidity,Sea Level PressureIn,VisibilityMPH,Wind Direction,Wind SpeedMPH,Gust SpeedMPH,PrecipitationIn,Events,Conditions,WindDirDegrees,DateUTC
12:53 AM,73.9,59.0,59,29.98,10.0,North,4.6,-,N/A,,Clear,10,2012-11-01 10:53:00
1:53 AM,73.9,59.0,59,29.96,10.0,East,3.5,-,N/A,,Partly Cloudy,80,2012-11-01 11:53:00
2:53 AM,75.0,60.1,60,29.96,10.0,Calm,Calm,-,N/A,,Clear,0,2012-11-01 12:53:00
3:53 AM,73.0,61.0,66,29.95,10.0,Calm,Calm,-,N/A,,Clear,0,2012-11-01 13:53:00
4:53 AM,73.0,61.0,66,29.94,10.0,East,4.6,-,N/A,,Clear,90,2012-11-01 14:53:00
5:53 AM,73.0,59.0,61,29.95,10.0,Calm,Calm,-,N/A,,Clear,0,2012-11-01 15:53:00
6:53 AM,72.0,57.9,61,29.97,10.0,ENE,3.5,-,N/A,,Clear,70,2012-11-01 16:53:00
7:53 AM,78.1,62.1,58,29.98,10.0,SSE,5.8,-,N/A,,Clear,150,2012-11-01 17:53:00
8:53 AM,80.1,64.9,60,29.99,10.0,South,8.1,-,N/A,,Clear,190,2012-11-01 18:53:00
9:53 AM,82.0,64.0,54,30.00,10.0,SSW,10.4,-,N/A,,Clear,210,2012-11-01 19:53:00
10:53 AM,82.9,64.0,53,29.99,10.0,SSW,9.2,-,N/A,,Clear,200,2012-11-01 20:53:00
11:53 AM,82.0,63.0,52,29.98,10.0,WSW,9.2,-,N/A,,Clear,250,2012-11-01 21:53:00
12:53 PM,82.0,64.0,54,29.96,10.0,SW,11.5,-,N/A,,Overcast,220,2012-11-01 22:53:00
1:53 PM,82.0,61.0,49,29.94,10.0,SSW,11.5,-,N/A,,Overcast,200,2012-11-01 23:53:00
2:53 PM,82.0,60.1,47,29.91,10.0,South,10.4,-,N/A,,Scattered Clouds,170,2012-11-02 00:53:00
3:53 PM,82.0,61.0,49,29.91,10.0,South,12.7,-,N/A,,Overcast,170,2012-11-02 01:53:00
4:53 PM,81.0,59.0,47,29.92,10.0,SSE,11.5,-,N/A,,Mostly Cloudy,150,2012-11-02 02:53:00
5:53 PM,81.0,59.0,47,29.94,10.0,SSE,12.7,-,N/A,,Overcast,150,2012-11-02 03:53:00
6:53 PM,81.0,60.1,49,29.95,10.0,SSE,11.5,-,N/A,,Overcast,150,2012-11-02 04:53:00
7:53 PM,80.1,59.0,48,29.97,10.0,SSE,5.8,-,N/A,,Overcast,150,2012-11-02 05:53:00
8:53 PM,78.1,59.0,52,29.98,10.0,ESE,4.6,-,N/A,,Partly Cloudy,120,2012-11-02 06:53:00
9:53 PM,77.0,59.0,54,29.99,10.0,SE,4.6,-,N/A,,Partly Cloudy,130,2012-11-02 07:53:00
10:53 PM,77.0,59.0,54,29.99,10.0,SE,3.5,-,N/A,,Scattered Clouds,140,2012-11-02 08:53:00
11:53 PM,75.9,60.1,58,29.99,10.0,ESE,4.6,-,N/A,,Mostly Cloudy,120,2012-11-02 09:53:00